contact:dominique.lefevre@mio.osupytheas.fr, maurice.libes@osupytheas.fr, didier.mallarino@osupytheas.fr
Project:EMSO http://www.emso-fr.org/EMSO-France
Depth: 2436.0 m
Title:EMSO Ligure Ouest : Data MII capteur MICROCAT
DateTime_Computer,Latitude,Longitude,Temperature,Conductivity,Pressure,DateTime_Instrument
DateTime_Computer,Latitude,Longitude,degC,S m-1,dbar,DateTime_Instrument
2020-06-27T00:01:19Z,42.805,6.029,13.2975,4.59980,2470.217,2020-6-27T02:02:05Z
2020-06-27T00:04:23Z,42.805,6.029,13.2974,4.59982,2470.203,2020-6-27T02:05:08Z
2020-06-27T00:07:26Z,42.805,6.029,13.2971,4.59978,2470.217,2020-6-27T02:08:11Z
2020-06-27T00:10:29Z,42.805,6.029,13.2971,4.59978,2470.18,2020-6-27T02:11:14Z
2020-06-27T00:13:32Z,42.805,6.029,13.2975,4.59979,2470.217,2020-6-27T02:14:18Z
2020-06-27T00:16:35Z,42.805,6.029,13.2973,4.59976,2470.203,2020-6-27T02:17:21Z
2020-06-27T00:19:39Z,42.805,6.029,13.2972,4.59980,2470.203,2020-6-27T02:20:24Z
2020-06-27T00:22:42Z,42.805,6.029,13.2971,4.59978,2470.203,2020-6-27T02:23:27Z
2020-06-27T00:25:45Z,42.805,6.029,13.2974,4.59977,2470.203,2020-6-27T02:26:31Z
2020-06-27T00:28:48Z,42.805,6.029,13.2972,4.59979,2470.18,2020-6-27T02:29:34Z
2020-06-27T00:31:52Z,42.805,6.029,13.2974,4.59978,2470.18,2020-6-27T02:32:37Z
2020-06-27T00:34:55Z,42.805,6.029,13.2974,4.59982,2470.18,2020-6-27T02:35:40Z
2020-06-27T00:37:58Z,42.805,6.029,13.2976,4.59978,2470.203,2020-6-27T02:38:43Z
2020-06-27T00:41:01Z,42.805,6.029,13.2974,4.59981,2470.18,2020-6-27T02:41:47Z
2020-06-27T00:44:05Z,42.805,6.029,13.2972,4.59976,2470.227,2020-6-27T02:44:50Z
2020-06-27T00:47:08Z,42.805,6.029,13.2971,4.59976,2470.194,2020-6-27T02:47:53Z
2020-06-27T00:50:11Z,42.805,6.029,13.2972,4.59977,2470.203,2020-6-27T02:50:56Z
2020-06-27T00:53:14Z,42.805,6.029,13.2969,4.59978,2470.203,2020-6-27T02:54:00Z
2020-06-27T00:56:18Z,42.805,6.029,13.2975,4.59978,2470.203,2020-6-27T02:57:03Z
2020-06-27T00:59:21Z,42.805,6.029,13.2971,4.59978,2470.18,2020-6-27T03:00:06Z
2020-06-27T01:02:24Z,42.805,6.029,13.2973,4.59981,2470.203,2020-6-27T03:03:09Z
2020-06-27T01:05:27Z,42.805,6.029,13.2974,4.59979,2470.217,2020-6-27T03:06:13Z
2020-06-27T01:08:31Z,42.805,6.029,13.2975,4.59978,2470.203,2020-6-27T03:09:16Z
2020-06-27T01:11:34Z,42.805,6.029,13.2972,4.59978,2470.203,2020-6-27T03:12:19Z
2020-06-27T01:14:37Z,42.805,6.029,13.2971,4.59978,2470.227,2020-6-27T03:15:23Z
2020-06-27T01:17:41Z,42.805,6.029,13.2974,4.59978,2470.18,2020-6-27T03:18:26Z
2020-06-27T01:20:44Z,42.805,6.029,13.2971,4.59978,2470.156,2020-6-27T03:21:29Z
2020-06-27T01:23:47Z,42.805,6.029,13.2976,4.59979,2470.18,2020-6-27T03:24:32Z
2020-06-27T01:26:50Z,42.805,6.029,13.2976,4.59980,2470.18,2020-6-27T03:27:36Z
2020-06-27T01:29:53Z,42.805,6.029,13.2975,4.59983,2470.194,2020-6-27T03:30:39Z
2020-06-27T01:32:57Z,42.805,6.029,13.2979,4.59978,2470.18,2020-6-27T03:33:42Z
2020-06-27T01:36:00Z,42.805,6.029,13.2971,4.59978,2470.156,2020-6-27T03:36:45Z
2020-06-27T01:39:03Z,42.805,6.029,13.2977,4.59980,2470.171,2020-6-27T03:39:48Z
2020-06-27T01:42:06Z,42.805,6.029,13.2975,4.59977,2470.156,2020-6-27T03:42:52Z
2020-06-27T01:45:10Z,42.805,6.029,13.2974,4.59978,2470.156,2020-6-27T03:45:55Z
2020-06-27T01:48:13Z,42.805,6.029,13.2974,4.59981,2470.171,2020-6-27T03:48:58Z
2020-06-27T01:51:16Z,42.805,6.029,13.2976,4.59976,2470.18,2020-6-27T03:52:01Z
2020-06-27T01:54:20Z,42.805,6.029,13.2976,4.59982,2470.18,2020-6-27T03:55:05Z
2020-06-27T01:57:23Z,42.805,6.029,13.2972,4.59983,2470.171,2020-6-27T03:58:08Z
2020-06-27T02:00:26Z,42.805,6.029,13.2971,4.59980,2470.194,2020-6-27T04:01:12Z
2020-06-27T02:03:29Z,42.805,6.029,13.2972,4.59977,2470.156,2020-6-27T04:04:15Z
2020-06-27T02:06:33Z,42.805,6.029,13.2971,4.59977,2470.11,2020-6-27T04:07:18Z
2020-06-27T02:09:36Z,42.805,6.029,13.2976,4.59980,2470.156,2020-6-27T04:10:21Z
2020-06-27T02:12:39Z,42.805,6.029,13.2974,4.59976,2470.147,2020-6-27T04:13:24Z
2020-06-27T02:15:42Z,42.805,6.029,13.2972,4.59976,2470.156,2020-6-27T04:16:28Z
2020-06-27T02:18:46Z,42.805,6.029,13.2974,4.59976,2470.147,2020-6-27T04:19:31Z
2020-06-27T02:21:49Z,42.805,6.029,13.2974,4.59977,2470.133,2020-6-27T04:22:35Z
2020-06-27T02:24:53Z,42.805,6.029,13.2979,4.59986,2470.119,2020-6-27T04:25:38Z
2020-06-27T02:27:56Z,42.805,6.029,13.2976,4.59979,2470.133,2020-6-27T04:28:41Z
2020-06-27T02:30:59Z,42.805,6.029,13.2977,4.59979,2470.133,2020-6-27T04:31:44Z
2020-06-27T02:34:02Z,42.805,6.029,13.2976,4.59976,2470.133,2020-6-27T04:34:48Z
2020-06-27T02:37:06Z,42.805,6.029,13.2973,4.59979,2470.156,2020-6-27T04:37:51Z
2020-06-27T02:40:09Z,42.805,6.029,13.2973,4.59978,2470.171,2020-6-27T04:40:54Z
2020-06-27T02:43:12Z,42.805,6.029,13.2978,4.59979,2470.156,2020-6-27T04:43:57Z
2020-06-27T02:46:15Z,42.805,6.029,13.2976,4.59978,2470.147,2020-6-27T04:47:00Z
2020-06-27T02:49:18Z,42.805,6.029,13.2976,4.59978,2470.087,2020-6-27T04:50:04Z
2020-06-27T02:52:22Z,42.805,6.029,13.2974,4.59980,2470.133,2020-6-27T04:53:07Z
2020-06-27T02:55:25Z,42.805,6.029,13.2974,4.59979,2470.119,2020-6-27T04:56:10Z
2020-06-27T02:58:28Z,42.805,6.029,13.2976,4.59983,2470.133,2020-6-27T04:59:14Z
2020-06-27T03:01:31Z,42.805,6.029,13.2970,4.59979,2470.133,2020-6-27T05:02:17Z
2020-06-27T03:04:35Z,42.805,6.029,13.2982,4.59982,2470.133,2020-6-27T05:05:20Z
2020-06-27T03:07:38Z,42.805,6.029,13.2976,4.59981,2470.087,2020-6-27T05:08:23Z
2020-06-27T03:10:41Z,42.805,6.029,13.2974,4.59981,2470.147,2020-6-27T05:11:26Z
2020-06-27T03:13:44Z,42.805,6.029,13.2976,4.59981,2470.11,2020-6-27T05:14:30Z
2020-06-27T03:16:48Z,42.805,6.029,13.2976,4.59986,2470.124,2020-6-27T05:17:33Z
2020-06-27T03:19:51Z,42.805,6.029,13.2974,4.59987,2470.087,2020-6-27T05:20:36Z
2020-06-27T03:22:54Z,42.805,6.029,13.2973,4.59980,2470.11,2020-6-27T05:23:39Z
2020-06-27T03:25:57Z,42.805,6.029,13.2972,4.59981,2470.087,2020-6-27T05:26:43Z
2020-06-27T03:29:00Z,42.805,6.029,13.2974,4.59981,2470.11,2020-6-27T05:29:46Z
2020-06-27T03:32:04Z,42.805,6.029,13.2974,4.59978,2470.11,2020-6-27T05:32:49Z
2020-06-27T03:35:07Z,42.805,6.029,13.2973,4.59979,2470.124,2020-6-27T05:35:52Z
2020-06-27T03:38:10Z,42.805,6.029,13.2978,4.59980,2470.087,2020-6-27T05:38:56Z
2020-06-27T03:41:14Z,42.805,6.029,13.2978,4.59981,2470.1,2020-6-27T05:41:59Z
2020-06-27T03:44:17Z,42.805,6.029,13.2979,4.59979,2470.124,2020-6-27T05:45:02Z
2020-06-27T03:47:20Z,42.805,6.029,13.2974,4.59978,2470.087,2020-6-27T05:48:05Z
2020-06-27T03:50:23Z,42.805,6.029,13.2974,4.59980,2470.11,2020-6-27T05:51:09Z
2020-06-27T03:53:26Z,42.805,6.029,13.2978,4.59981,2470.087,2020-6-27T05:54:12Z
2020-06-27T03:56:30Z,42.805,6.029,13.2974,4.59979,2470.063,2020-6-27T05:57:15Z
2020-06-27T03:59:33Z,42.805,6.029,13.2973,4.59976,2470.124,2020-6-27T06:00:18Z
2020-06-27T04:02:36Z,42.805,6.029,13.2973,4.59978,2470.087,2020-6-27T06:03:21Z
2020-06-27T04:05:39Z,42.805,6.029,13.2976,4.59981,2470.077,2020-6-27T06:06:25Z
2020-06-27T04:08:43Z,42.805,6.029,13.2971,4.59979,2470.1,2020-6-27T06:09:28Z
2020-06-27T04:11:46Z,42.805,6.029,13.2974,4.59982,2470.063,2020-6-27T06:12:31Z
2020-06-27T04:14:49Z,42.805,6.029,13.2971,4.59981,2470.04,2020-6-27T06:15:35Z
2020-06-27T04:17:52Z,42.805,6.029,13.2974,4.59977,2470.1,2020-6-27T06:18:38Z
2020-06-27T04:20:56Z,42.805,6.029,13.2972,4.59978,2470.087,2020-6-27T06:21:41Z
2020-06-27T04:23:59Z,42.805,6.029,13.2976,4.59982,2470.1,2020-6-27T06:24:44Z
2020-06-27T04:27:02Z,42.805,6.029,13.2974,4.59979,2470.087,2020-6-27T06:27:47Z
2020-06-27T04:30:05Z,42.805,6.029,13.2979,4.59981,2470.077,2020-6-27T06:30:51Z
2020-06-27T04:33:09Z,42.805,6.029,13.2971,4.59978,2470.087,2020-6-27T06:33:54Z
2020-06-27T04:36:12Z,42.805,6.029,13.2977,4.59981,2470.077,2020-6-27T06:36:57Z
2020-06-27T04:39:15Z,42.805,6.029,13.2979,4.59981,2470.04,2020-6-27T06:40:00Z
2020-06-27T04:42:18Z,42.805,6.029,13.2974,4.59978,2470.087,2020-6-27T06:43:04Z
2020-06-27T04:45:21Z,42.805,6.029,13.2974,4.59978,2470.063,2020-6-27T06:46:07Z
2020-06-27T04:48:25Z,42.805,6.029,13.2971,4.59979,2470.063,2020-6-27T06:49:10Z
2020-06-27T04:51:28Z,42.805,6.029,13.2979,4.59981,2470.04,2020-6-27T06:52:13Z
2020-06-27T04:54:31Z,42.805,6.029,13.2974,4.59978,2470.053,2020-6-27T06:55:16Z
2020-06-27T04:57:34Z,42.805,6.029,13.2976,4.59978,2470.026,2020-6-27T06:58:20Z
2020-06-27T05:00:38Z,42.805,6.029,13.2974,4.59976,2470.063,2020-6-27T07:01:23Z
2020-06-27T05:03:41Z,42.805,6.029,13.2976,4.59982,2470.063,2020-6-27T07:04:26Z
2020-06-27T05:06:44Z,42.805,6.029,13.2971,4.59978,2470.017,2020-6-27T07:07:29Z
2020-06-27T05:09:47Z,42.805,6.029,13.2976,4.59979,2470.063,2020-6-27T07:10:32Z
2020-06-27T05:12:51Z,42.805,6.029,13.2976,4.59984,2470.077,2020-6-27T07:13:36Z
2020-06-27T05:15:54Z,42.805,6.029,13.2975,4.59979,2470.04,2020-6-27T07:16:39Z
2020-06-27T05:18:57Z,42.805,6.029,13.2979,4.59982,2470.017,2020-6-27T07:19:42Z
2020-06-27T05:22:00Z,42.805,6.029,13.2978,4.59981,2470.077,2020-6-27T07:22:46Z
2020-06-27T05:25:04Z,42.805,6.029,13.2974,4.59977,2470.077,2020-6-27T07:25:49Z
2020-06-27T05:28:07Z,42.805,6.029,13.2971,4.59978,2470.063,2020-6-27T07:28:52Z
2020-06-27T05:31:10Z,42.805,6.029,13.2979,4.59984,2470.053,2020-6-27T07:31:55Z
2020-06-27T05:34:14Z,42.805,6.029,13.2971,4.59982,2470.04,2020-6-27T07:34:59Z
2020-06-27T05:37:17Z,42.805,6.029,13.2974,4.59983,2470.053,2020-6-27T07:38:02Z
2020-06-27T05:40:20Z,42.805,6.029,13.2976,4.59983,2470.053,2020-6-27T07:41:05Z
2020-06-27T05:43:23Z,42.805,6.029,13.2977,4.59985,2470.017,2020-6-27T07:44:09Z
2020-06-27T05:46:27Z,42.805,6.029,13.2971,4.59979,2470.017,2020-6-27T07:47:12Z
2020-06-27T05:49:30Z,42.805,6.029,13.2977,4.59978,2470.053,2020-6-27T07:50:15Z
2020-06-27T05:52:33Z,42.805,6.029,13.2979,4.59984,2470.04,2020-6-27T07:53:18Z
2020-06-27T05:55:36Z,42.805,6.029,13.2978,4.59983,2470.053,2020-6-27T07:56:21Z
2020-06-27T05:58:39Z,42.805,6.029,13.2973,4.59978,2470.017,2020-6-27T07:59:25Z
2020-06-27T06:01:43Z,42.805,6.029,13.2974,4.59983,2470.017,2020-6-27T08:02:28Z
2020-06-27T06:04:46Z,42.805,6.029,13.2975,4.59986,2470.077,2020-6-27T08:05:31Z
2020-06-27T06:07:49Z,42.805,6.029,13.2972,4.59983,2470.04,2020-6-27T08:08:34Z
2020-06-27T06:10:52Z,42.805,6.029,13.2974,4.59982,2470.017,2020-6-27T08:11:38Z
2020-06-27T06:13:56Z,42.805,6.029,13.2973,4.59981,2469.993,2020-6-27T08:14:41Z
2020-06-27T06:16:59Z,42.805,6.029,13.2976,4.59988,2470.017,2020-6-27T08:17:44Z
2020-06-27T06:20:02Z,42.805,6.029,13.2976,4.59983,2470.04,2020-6-27T08:20:47Z
2020-06-27T06:23:05Z,42.805,6.029,13.2977,4.59979,2470.03,2020-6-27T08:23:51Z
2020-06-27T06:26:09Z,42.805,6.029,13.2974,4.59979,2470.03,2020-6-27T08:26:54Z
2020-06-27T06:29:12Z,42.805,6.029,13.2975,4.59980,2470.03,2020-6-27T08:29:57Z
2020-06-27T06:32:15Z,42.805,6.029,13.2973,4.59978,2470.017,2020-6-27T08:33:00Z
2020-06-27T06:35:18Z,42.805,6.029,13.2976,4.59980,2470.017,2020-6-27T08:36:04Z
2020-06-27T06:38:21Z,42.805,6.029,13.2979,4.59983,2470.03,2020-6-27T08:39:07Z
2020-06-27T06:41:25Z,42.805,6.029,13.2979,4.59982,2470.03,2020-6-27T08:42:10Z
2020-06-27T06:44:28Z,42.805,6.029,13.2976,4.59982,2470.04,2020-6-27T08:45:13Z
2020-06-27T06:47:31Z,42.805,6.029,13.2974,4.59981,2470.017,2020-6-27T08:48:16Z
2020-06-27T06:50:34Z,42.805,6.029,13.2972,4.59983,2470.017,2020-6-27T08:51:20Z
2020-06-27T06:53:38Z,42.805,6.029,13.2974,4.59981,2470.017,2020-6-27T08:54:23Z
2020-06-27T06:56:41Z,42.805,6.029,13.2974,4.59988,2469.993,2020-6-27T08:57:26Z
2020-06-27T06:59:44Z,42.805,6.029,13.2976,4.59986,2470.053,2020-6-27T09:00:29Z
2020-06-27T07:02:47Z,42.805,6.029,13.2978,4.59985,2470.017,2020-6-27T09:03:33Z
2020-06-27T07:05:51Z,42.805,6.029,13.2978,4.59983,2470.04,2020-6-27T09:06:36Z
2020-06-27T07:08:54Z,42.805,6.029,13.2976,4.59980,2470.03,2020-6-27T09:09:39Z
2020-06-27T07:11:57Z,42.805,6.029,13.2974,4.59982,2469.993,2020-6-27T09:12:43Z
2020-06-27T07:15:01Z,42.805,6.029,13.2976,4.59983,2470.053,2020-6-27T09:15:46Z
2020-06-27T07:18:04Z,42.805,6.029,13.2974,4.59983,2470.017,2020-6-27T09:18:49Z
2020-06-27T07:21:07Z,42.805,6.029,13.2972,4.59986,2470.007,2020-6-27T09:21:52Z
2020-06-27T07:24:10Z,42.805,6.029,13.2976,4.59986,2470.04,2020-6-27T09:24:56Z
2020-06-27T07:27:14Z,42.805,6.029,13.2974,4.59983,2470.04,2020-6-27T09:27:59Z
2020-06-27T07:30:17Z,42.805,6.029,13.2973,4.59978,2470.03,2020-6-27T09:31:02Z
2020-06-27T07:33:20Z,42.805,6.029,13.2972,4.59981,2470.063,2020-6-27T09:34:05Z
2020-06-27T07:36:23Z,42.805,6.029,13.2976,4.59981,2470.063,2020-6-27T09:37:09Z
2020-06-27T07:39:27Z,42.805,6.029,13.2970,4.59978,2470.053,2020-6-27T09:40:12Z
2020-06-27T07:42:30Z,42.805,6.029,13.2971,4.59980,2470.077,2020-6-27T09:43:15Z
2020-06-27T07:45:33Z,42.805,6.029,13.2974,4.59980,2470.04,2020-6-27T09:46:18Z
2020-06-27T07:48:36Z,42.805,6.029,13.2975,4.59977,2470.053,2020-6-27T09:49:22Z
2020-06-27T07:51:40Z,42.805,6.029,13.2977,4.59981,2470.017,2020-6-27T09:52:25Z
2020-06-27T07:54:43Z,42.805,6.029,13.2976,4.59979,2470.03,2020-6-27T09:55:28Z
2020-06-27T07:57:46Z,42.805,6.029,13.2975,4.59981,2470.03,2020-6-27T09:58:31Z
2020-06-27T08:00:49Z,42.805,6.029,13.2977,4.59989,2470.04,2020-6-27T10:01:35Z
2020-06-27T08:03:53Z,42.805,6.029,13.2971,4.59986,2470.04,2020-6-27T10:04:38Z
2020-06-27T08:06:56Z,42.805,6.029,13.2976,4.59982,2470.017,2020-6-27T10:07:41Z
2020-06-27T08:09:59Z,42.805,6.029,13.2979,4.59979,2470.04,2020-6-27T10:10:45Z
2020-06-27T08:13:03Z,42.805,6.029,13.2974,4.59979,2470.03,2020-6-27T10:13:48Z
2020-06-27T08:16:06Z,42.805,6.029,13.2974,4.59983,2470.03,2020-6-27T10:16:51Z
2020-06-27T08:19:09Z,42.805,6.029,13.2973,4.59981,2470.03,2020-6-27T10:19:54Z
2020-06-27T08:22:12Z,42.805,6.029,13.2979,4.59983,2470.017,2020-6-27T10:22:58Z
2020-06-27T08:25:15Z,42.805,6.029,13.2979,4.59981,2470.03,2020-6-27T10:26:01Z
2020-06-27T08:28:19Z,42.805,6.029,13.2977,4.59983,2470.04,2020-6-27T10:29:04Z
2020-06-27T08:31:22Z,42.805,6.029,13.2970,4.59979,2470.04,2020-6-27T10:32:07Z
2020-06-27T08:34:25Z,42.805,6.029,13.2974,4.59983,2470.063,2020-6-27T10:35:11Z
2020-06-27T08:37:29Z,42.805,6.029,13.2973,4.59983,2470.077,2020-6-27T10:38:14Z
2020-06-27T08:40:32Z,42.805,6.029,13.2976,4.59980,2470.053,2020-6-27T10:41:17Z
2020-06-27T08:43:35Z,42.805,6.029,13.2975,4.59982,2470.053,2020-6-27T10:44:20Z
2020-06-27T08:46:38Z,42.805,6.029,13.2976,4.59981,2470.017,2020-6-27T10:47:24Z
2020-06-27T08:49:42Z,42.805,6.029,13.2975,4.59981,2470.03,2020-6-27T10:50:27Z
2020-06-27T08:52:45Z,42.805,6.029,13.2974,4.59978,2470.063,2020-6-27T10:53:30Z
2020-06-27T08:55:48Z,42.805,6.029,13.2974,4.59978,2470.087,2020-6-27T10:56:33Z
2020-06-27T08:58:51Z,42.805,6.029,13.2978,4.59983,2470.1,2020-6-27T10:59:37Z
2020-06-27T09:01:54Z,42.805,6.029,13.2971,4.59981,2470.026,2020-6-27T11:02:40Z
2020-06-27T09:04:58Z,42.805,6.029,13.2976,4.59981,2470.063,2020-6-27T11:05:43Z
2020-06-27T09:08:01Z,42.805,6.029,13.2975,4.59978,2470.053,2020-6-27T11:08:46Z
2020-06-27T09:11:04Z,42.805,6.029,13.2979,4.59981,2470.063,2020-6-27T11:11:50Z
2020-06-27T09:14:07Z,42.805,6.029,13.2976,4.59979,2470.077,2020-6-27T11:14:53Z
2020-06-27T09:17:11Z,42.805,6.029,13.2976,4.59981,2470.04,2020-6-27T11:17:56Z
2020-06-27T09:20:14Z,42.805,6.029,13.2971,4.59977,2470.063,2020-6-27T11:20:59Z
2020-06-27T09:23:17Z,42.805,6.029,13.2970,4.59976,2470.087,2020-6-27T11:24:03Z
2020-06-27T09:26:20Z,42.805,6.029,13.2974,4.59985,2470.063,2020-6-27T11:27:06Z
2020-06-27T09:29:24Z,42.805,6.029,13.2971,4.59986,2470.063,2020-6-27T11:30:09Z
2020-06-27T09:32:27Z,42.805,6.029,13.2974,4.59976,2470.091,2020-6-27T11:33:12Z
2020-06-27T09:35:30Z,42.805,6.029,13.2971,4.59978,2470.087,2020-6-27T11:36:15Z
2020-06-27T09:38:33Z,42.805,6.029,13.2969,4.59978,2470.077,2020-6-27T11:39:19Z
2020-06-27T09:41:37Z,42.805,6.029,13.2974,4.59975,2470.087,2020-6-27T11:42:22Z
2020-06-27T09:44:40Z,42.805,6.029,13.2975,4.59983,2470.077,2020-6-27T11:45:25Z
2020-06-27T09:47:43Z,42.805,6.029,13.2975,4.59983,2470.017,2020-6-27T11:48:29Z
2020-06-27T09:50:47Z,42.805,6.029,13.2972,4.59980,2470.077,2020-6-27T11:51:32Z
2020-06-27T09:53:50Z,42.805,6.029,13.2972,4.59978,2470.04,2020-6-27T11:54:35Z
2020-06-27T09:56:53Z,42.805,6.029,13.2975,4.59981,2470.087,2020-6-27T11:57:38Z
2020-06-27T09:59:56Z,42.805,6.029,13.2973,4.59985,2470.063,2020-6-27T12:00:42Z
2020-06-27T10:02:59Z,42.805,6.029,13.2974,4.59980,2470.063,2020-6-27T12:03:45Z
2020-06-27T10:06:03Z,42.805,6.029,13.2974,4.59988,2470.063,2020-6-27T12:06:48Z
2020-06-27T10:09:06Z,42.805,6.029,13.2976,4.59983,2470.087,2020-6-27T12:09:51Z
2020-06-27T10:12:09Z,42.805,6.029,13.2976,4.59982,2470.087,2020-6-27T12:12:55Z
2020-06-27T10:15:13Z,42.805,6.029,13.2971,4.59981,2470.087,2020-6-27T12:15:58Z
2020-06-27T10:18:16Z,42.805,6.029,13.2975,4.59978,2470.077,2020-6-27T12:19:01Z
2020-06-27T10:21:19Z,42.805,6.029,13.2976,4.59984,2470.087,2020-6-27T12:22:04Z
2020-06-27T10:24:22Z,42.805,6.029,13.2976,4.59987,2470.087,2020-6-27T12:25:08Z
2020-06-27T10:27:26Z,42.805,6.029,13.2974,4.59981,2470.11,2020-6-27T12:28:11Z
2020-06-27T10:30:29Z,42.805,6.029,13.2971,4.59976,2470.073,2020-6-27T12:31:14Z
2020-06-27T10:33:32Z,42.805,6.029,13.2973,4.59979,2470.063,2020-6-27T12:34:17Z
2020-06-27T10:36:35Z,42.805,6.029,13.2970,4.59985,2470.1,2020-6-27T12:37:21Z
2020-06-27T10:39:39Z,42.805,6.029,13.2971,4.59981,2470.11,2020-6-27T12:40:24Z
2020-06-27T10:42:42Z,42.805,6.029,13.2974,4.59981,2470.124,2020-6-27T12:43:27Z
2020-06-27T10:45:45Z,42.805,6.029,13.2977,4.59982,2470.11,2020-6-27T12:46:31Z
2020-06-27T10:48:49Z,42.805,6.029,13.2972,4.59986,2470.087,2020-6-27T12:49:34Z
2020-06-27T10:51:52Z,42.805,6.029,13.2975,4.59983,2470.087,2020-6-27T12:52:37Z
2020-06-27T10:54:55Z,42.805,6.029,13.2974,4.59982,2470.087,2020-6-27T12:55:41Z
2020-06-27T10:57:59Z,42.805,6.029,13.2976,4.59973,2470.087,2020-6-27T12:58:44Z
2020-06-27T11:01:02Z,42.805,6.029,13.2973,4.59983,2470.087,2020-6-27T13:01:47Z
2020-06-27T11:04:05Z,42.805,6.029,13.2971,4.59981,2470.133,2020-6-27T13:04:51Z
2020-06-27T11:07:08Z,42.805,6.029,13.2973,4.59978,2470.073,2020-6-27T13:07:54Z
2020-06-27T11:10:12Z,42.805,6.029,13.2974,4.59981,2470.124,2020-6-27T13:10:57Z
2020-06-27T11:13:15Z,42.805,6.029,13.2974,4.59980,2470.133,2020-6-27T13:14:00Z
2020-06-27T11:16:18Z,42.805,6.029,13.2972,4.59982,2470.087,2020-6-27T13:17:04Z
2020-06-27T11:19:22Z,42.805,6.029,13.2973,4.59983,2470.11,2020-6-27T13:20:07Z
2020-06-27T11:22:25Z,42.805,6.029,13.2972,4.59978,2470.11,2020-6-27T13:23:10Z
2020-06-27T11:25:28Z,42.805,6.029,13.2974,4.59979,2470.147,2020-6-27T13:26:14Z
2020-06-27T11:28:32Z,42.805,6.029,13.2971,4.59981,2470.087,2020-6-27T13:29:17Z
2020-06-27T11:31:35Z,42.805,6.029,13.2971,4.59983,2470.124,2020-6-27T13:32:20Z
2020-06-27T11:34:38Z,42.805,6.029,13.2972,4.59981,2470.087,2020-6-27T13:35:23Z
2020-06-27T11:37:41Z,42.805,6.029,13.2975,4.59978,2470.11,2020-6-27T13:38:27Z
2020-06-27T11:40:44Z,42.805,6.029,13.2970,4.59976,2470.124,2020-6-27T13:41:30Z
2020-06-27T11:43:48Z,42.805,6.029,13.2972,4.59976,2470.133,2020-6-27T13:44:33Z
2020-06-27T11:46:51Z,42.805,6.029,13.2974,4.59979,2470.087,2020-6-27T13:47:36Z
2020-06-27T11:49:54Z,42.805,6.029,13.2971,4.59977,2470.11,2020-6-27T13:50:40Z
2020-06-27T11:52:58Z,42.805,6.029,13.2973,4.59980,2470.133,2020-6-27T13:53:43Z
2020-06-27T11:56:01Z,42.805,6.029,13.2968,4.59978,2470.124,2020-6-27T13:56:46Z
2020-06-27T11:59:04Z,42.805,6.029,13.2972,4.59980,2470.124,2020-6-27T13:59:49Z
2020-06-27T12:02:07Z,42.805,6.029,13.2972,4.59977,2470.087,2020-6-27T14:02:53Z
2020-06-27T12:05:10Z,42.805,6.029,13.2972,4.59983,2470.087,2020-6-27T14:05:56Z
2020-06-27T12:08:14Z,42.805,6.029,13.2972,4.59977,2470.077,2020-6-27T14:08:59Z
2020-06-27T12:11:17Z,42.805,6.029,13.2975,4.59976,2470.11,2020-6-27T14:12:02Z
2020-06-27T12:14:20Z,42.805,6.029,13.2968,4.59976,2470.11,2020-6-27T14:15:06Z
2020-06-27T12:17:23Z,42.805,6.029,13.2972,4.59978,2470.077,2020-6-27T14:18:09Z
2020-06-27T12:20:27Z,42.805,6.029,13.2972,4.59979,2470.124,2020-6-27T14:21:12Z
2020-06-27T12:23:30Z,42.805,6.029,13.2972,4.59978,2470.087,2020-6-27T14:24:16Z
2020-06-27T12:26:34Z,42.805,6.029,13.2973,4.59978,2470.087,2020-6-27T14:27:19Z
2020-06-27T12:29:37Z,42.805,6.029,13.2971,4.59981,2470.087,2020-6-27T14:30:22Z
2020-06-27T12:32:40Z,42.805,6.029,13.2974,4.59986,2470.124,2020-6-27T14:33:25Z
2020-06-27T12:35:44Z,42.805,6.029,13.2973,4.59981,2470.087,2020-6-27T14:36:29Z
2020-06-27T12:38:47Z,42.805,6.029,13.2974,4.59980,2470.1,2020-6-27T14:39:32Z
2020-06-27T12:41:50Z,42.805,6.029,13.2977,4.59985,2470.087,2020-6-27T14:42:36Z
2020-06-27T12:44:54Z,42.805,6.029,13.2976,4.59980,2470.11,2020-6-27T14:45:39Z
2020-06-27T12:47:57Z,42.805,6.029,13.2974,4.59983,2470.087,2020-6-27T14:48:42Z
2020-06-27T12:51:00Z,42.805,6.029,13.2971,4.59982,2470.124,2020-6-27T14:51:45Z
2020-06-27T12:54:03Z,42.805,6.029,13.2974,4.59979,2470.1,2020-6-27T14:54:49Z
2020-06-27T12:57:07Z,42.805,6.029,13.2969,4.59976,2470.077,2020-6-27T14:57:52Z
2020-06-27T13:00:10Z,42.805,6.029,13.2974,4.59980,2470.1,2020-6-27T15:00:55Z
2020-06-27T13:03:13Z,42.805,6.029,13.2976,4.59980,2470.087,2020-6-27T15:03:58Z
2020-06-27T13:06:16Z,42.805,6.029,13.2974,4.59984,2470.11,2020-6-27T15:07:02Z
2020-06-27T13:09:19Z,42.805,6.029,13.2972,4.59976,2470.11,2020-6-27T15:10:05Z
2020-06-27T13:12:23Z,42.805,6.029,13.2983,4.59981,2470.1,2020-6-27T15:13:08Z
2020-06-27T13:15:26Z,42.805,6.029,13.2975,4.59985,2470.1,2020-6-27T15:16:11Z
2020-06-27T13:18:29Z,42.805,6.029,13.2972,4.59980,2470.087,2020-6-27T15:19:15Z
2020-06-27T13:21:32Z,42.805,6.029,13.2974,4.59979,2470.1,2020-6-27T15:22:18Z
2020-06-27T13:24:36Z,42.805,6.029,13.2977,4.59981,2470.063,2020-6-27T15:25:21Z
2020-06-27T13:27:39Z,42.805,6.029,13.2977,4.59978,2470.087,2020-6-27T15:28:24Z
2020-06-27T13:30:42Z,42.805,6.029,13.2971,4.59978,2470.063,2020-6-27T15:31:28Z
2020-06-27T13:33:46Z,42.805,6.029,13.2974,4.59980,2470.087,2020-6-27T15:34:31Z
2020-06-27T13:36:49Z,42.805,6.029,13.2975,4.59982,2470.087,2020-6-27T15:37:34Z
2020-06-27T13:39:52Z,42.805,6.029,13.2972,4.59981,2470.063,2020-6-27T15:40:37Z
2020-06-27T13:42:55Z,42.805,6.029,13.2976,4.59978,2470.11,2020-6-27T15:43:41Z
2020-06-27T13:45:58Z,42.805,6.029,13.2975,4.59979,2470.096,2020-6-27T15:46:44Z
2020-06-27T13:49:02Z,42.805,6.029,13.2975,4.59984,2470.077,2020-6-27T15:49:47Z
2020-06-27T13:52:05Z,42.805,6.029,13.2976,4.59985,2470.077,2020-6-27T15:52:50Z
2020-06-27T13:55:08Z,42.805,6.029,13.2976,4.59981,2470.063,2020-6-27T15:55:54Z
2020-06-27T13:58:11Z,42.805,6.029,13.2974,4.59974,2470.1,2020-6-27T15:58:57Z
2020-06-27T14:01:15Z,42.805,6.029,13.2973,4.59986,2470.063,2020-6-27T16:02:00Z
2020-06-27T14:04:18Z,42.805,6.029,13.2971,4.59980,2470.11,2020-6-27T16:05:03Z
2020-06-27T14:07:21Z,42.805,6.029,13.2976,4.59984,2470.087,2020-6-27T16:08:07Z
2020-06-27T14:10:24Z,42.805,6.029,13.2969,4.59978,2470.063,2020-6-27T16:11:10Z
2020-06-27T14:13:28Z,42.805,6.029,13.2973,4.59981,2470.063,2020-6-27T16:14:13Z
2020-06-27T14:16:31Z,42.805,6.029,13.2971,4.59980,2470.04,2020-6-27T16:17:16Z
2020-06-27T14:19:34Z,42.805,6.029,13.2974,4.59980,2470.063,2020-6-27T16:20:20Z
2020-06-27T14:22:38Z,42.805,6.029,13.2975,4.59979,2470.063,2020-6-27T16:23:23Z
2020-06-27T14:25:41Z,42.805,6.029,13.2976,4.59986,2470.04,2020-6-27T16:26:26Z
2020-06-27T14:28:44Z,42.805,6.029,13.2972,4.59981,2470.063,2020-6-27T16:29:29Z
2020-06-27T14:31:47Z,42.805,6.029,13.2974,4.59976,2470.063,2020-6-27T16:32:33Z
2020-06-27T14:34:51Z,42.805,6.029,13.2970,4.59978,2470.04,2020-6-27T16:35:36Z
2020-06-27T14:37:54Z,42.805,6.029,13.2972,4.59975,2470.063,2020-6-27T16:38:39Z
2020-06-27T14:40:57Z,42.805,6.029,13.2974,4.59979,2470.063,2020-6-27T16:41:42Z
2020-06-27T14:44:00Z,42.805,6.029,13.2974,4.59983,2470.053,2020-6-27T16:44:46Z
2020-06-27T14:47:04Z,42.805,6.029,13.2970,4.59981,2470.063,2020-6-27T16:47:49Z
2020-06-27T14:50:07Z,42.805,6.029,13.2971,4.59975,2470.04,2020-6-27T16:50:52Z
2020-06-27T14:53:10Z,42.805,6.029,13.2973,4.59976,2470.049,2020-6-27T16:53:55Z
2020-06-27T14:56:13Z,42.805,6.029,13.2968,4.59978,2470.04,2020-6-27T16:56:59Z
2020-06-27T14:59:16Z,42.805,6.029,13.2976,4.59984,2470.053,2020-6-27T17:00:02Z
2020-06-27T15:02:20Z,42.805,6.029,13.2973,4.59982,2470.04,2020-6-27T17:03:05Z
2020-06-27T15:05:23Z,42.805,6.029,13.2974,4.59976,2470.04,2020-6-27T17:06:08Z
2020-06-27T15:08:26Z,42.805,6.029,13.2968,4.59978,2470.053,2020-6-27T17:09:12Z
2020-06-27T15:11:29Z,42.805,6.029,13.2969,4.59976,2470.04,2020-6-27T17:12:15Z
2020-06-27T15:14:33Z,42.805,6.029,13.2971,4.59980,2470.063,2020-6-27T17:15:18Z